GSAT0205 (PRN E24)

Last updated on Feb. 27, 2020, 4:51 a.m. UTC

1 40889U 15045A   20056.71999540  .00000008  00000-0  00000-0 0  9999
2 40889  56.2394 285.2023 0005362  22.1818 337.9051  1.70474902 27742
UTC
Height (km)
Latitude
Longitude
Inclination
Orbital Period
UTC large
Height (km)
Speed (km/s)
/
Latitude / Longitude
Inclination (degrees)
Orbital Period (minutes)
Azimuth
Elevation
Range (km)
Doppler Factor
iOS Compass Heading
iOS Angle

Next 30 passes for location: Hong Kong

Rise time Rise Azimuth (degrees) Set time Set Azimuth (degrees) Duration Max altitude (degrees)

No matching passes for this satellites